TimeEST,TemperatureF,Dew PointF,Humidity,Sea Level PressureIn,VisibilityMPH,Wind Direction,Wind SpeedMPH,Gust SpeedMPH,PrecipitationIn,Events,Conditions,WindDirDegrees,DateUTC
12:15 AM,6.8,-0.4,72,30.37,1.5,NNE,8.1,-,N/A,,Overcast,30,2013-12-15 05:15:00
12:35 AM,6.8,-0.4,72,30.37,1.2,NE,8.1,-,N/A,,Overcast,40,2013-12-15 05:35:00
12:55 AM,6.8,-0.4,72,30.33,1.2,NE,11.5,16.1,N/A,,Overcast,40,2013-12-15 05:55:00
1:15 AM,6.8,-0.4,72,30.31,1.0,NNE,10.4,16.1,N/A,,Overcast,20,2013-12-15 06:15:00
1:35 AM,6.8,-0.4,72,30.25,1.8,NNE,11.5,17.3,N/A,,Overcast,30,2013-12-15 06:35:00
1:55 AM,6.8,-0.4,72,30.25,1.2,NNE,9.2,19.6,N/A,,Overcast,30,2013-12-15 06:55:00
2:15 AM,6.8,-0.4,72,30.23,0.8,NNE,11.5,-,N/A,,Overcast,30,2013-12-15 07:15:00
2:35 AM,6.8,-0.4,72,30.21,0.8,NNE,11.5,-,N/A,,Overcast,30,2013-12-15 07:35:00
2:55 AM,6.8,-0.4,72,30.17,1.2,NNE,12.7,-,N/A,,Overcast,30,2013-12-15 07:55:00
3:15 AM,6.8,-0.4,72,30.18,0.5,NNE,11.5,16.1,N/A,,Overcast,30,2013-12-15 08:15:00
3:35 AM,6.8,-0.4,72,30.18,0.2,NNE,8.1,-,N/A,,Overcast,20,2013-12-15 08:35:00
3:55 AM,6.8,-0.4,72,30.15,0.2,NNE,11.5,-,N/A,,Overcast,20,2013-12-15 08:55:00
4:15 AM,5.0,-0.4,78,30.11,0.2,NNE,15.0,-,N/A,,Overcast,20,2013-12-15 09:15:00
4:35 AM,5.0,-0.4,78,30.07,0.2,NNE,16.1,23.0,N/A,,Overcast,20,2013-12-15 09:35:00
4:55 AM,5.0,-0.4,78,30.07,0.2,NNE,13.8,20.7,N/A,,Overcast,20,2013-12-15 09:55:00
5:15 AM,5.0,-0.4,78,30.04,0.2,NNE,15.0,-,N/A,,Overcast,20,2013-12-15 10:15:00
5:35 AM,5.0,-0.4,78,30.02,0.2,NNE,13.8,20.7,N/A,,Overcast,30,2013-12-15 10:35:00
5:55 AM,5.0,-0.4,78,29.97,0.2,NNE,15.0,25.3,N/A,,Overcast,30,2013-12-15 10:55:00
6:15 AM,5.0,-0.4,78,29.93,0.5,NNE,19.6,24.2,N/A,,Overcast,20,2013-12-15 11:15:00
6:35 AM,5.0,-0.4,78,29.91,0.5,NNE,16.1,23.0,N/A,,Overcast,20,2013-12-15 11:35:00
6:55 AM,6.8,-0.4,72,29.87,1.5,NNE,16.1,23.0,N/A,,Overcast,30,2013-12-15 11:55:00
7:15 AM,6.8,-0.4,72,29.82,0.8,NNE,18.4,21.9,N/A,,Overcast,30,2013-12-15 12:15:00
7:35 AM,6.8,-0.4,72,29.77,0.2,NNE,19.6,26.5,N/A,,Overcast,20,2013-12-15 12:35:00
7:55 AM,6.8,1.4,79,29.77,0.5,North,19.6,-,N/A,,Overcast,10,2013-12-15 12:55:00
8:15 AM,6.8,3.2,85,29.78,0.5,North,17.3,23.0,N/A,,Overcast,10,2013-12-15 13:15:00
8:35 AM,6.8,1.4,79,29.74,0.5,NNE,18.4,24.2,N/A,,Overcast,20,2013-12-15 13:35:00
8:55 AM,8.6,1.4,73,29.72,0.5,NNE,21.9,27.6,N/A,,Overcast,20,2013-12-15 13:55:00
9:15 AM,8.6,1.4,73,29.69,0.5,North,21.9,29.9,N/A,,Overcast,10,2013-12-15 14:15:00
9:35 AM,8.6,3.2,79,29.64,0.5,NNE,19.6,27.6,N/A,,Overcast,20,2013-12-15 14:35:00
9:55 AM,8.6,3.2,79,29.62,0.5,NNE,18.4,-,N/A,,Overcast,20,2013-12-15 14:55:00
10:15 AM,8.6,3.2,79,29.59,0.5,North,19.6,24.2,N/A,,Overcast,10,2013-12-15 15:15:00
10:35 AM,8.6,3.2,79,29.57,0.5,North,19.6,29.9,N/A,,Overcast,10,2013-12-15 15:35:00
10:55 AM,8.6,3.2,79,29.55,0.5,North,18.4,32.2,N/A,,Overcast,10,2013-12-15 15:55:00
11:15 AM,8.6,5.0,85,29.52,0.5,North,20.7,26.5,N/A,,Overcast,360,2013-12-15 16:15:00
11:35 AM,8.6,5.0,85,29.50,0.5,North,20.7,28.8,N/A,,Overcast,360,2013-12-15 16:35:00
11:55 AM,8.6,3.2,79,29.48,0.8,North,25.3,32.2,N/A,,Overcast,10,2013-12-15 16:55:00
12:15 PM,10.4,10.4,100,29.47,0.8,North,26.5,32.2,N/A,,Overcast,360,2013-12-15 17:15:00
12:35 PM,10.4,8.6,92,29.45,1.0,North,24.2,29.9,N/A,,Overcast,10,2013-12-15 17:35:00
12:55 PM,12.2,8.6,85,29.44,1.0,North,21.9,32.2,N/A,,Overcast,10,2013-12-15 17:55:00
1:15 PM,12.2,8.6,85,29.43,1.0,North,19.6,27.6,N/A,,Overcast,10,2013-12-15 18:15:00
1:35 PM,12.2,8.6,85,29.43,0.5,North,18.4,29.9,N/A,,Overcast,10,2013-12-15 18:35:00
1:55 PM,12.2,8.6,85,29.43,0.5,North,24.2,34.5,N/A,,Overcast,10,2013-12-15 18:55:00
2:15 PM,12.2,10.4,92,29.43,0.8,North,17.3,25.3,N/A,,Overcast,360,2013-12-15 19:15:00
2:35 PM,14.0,10.4,86,29.44,0.8,North,20.7,27.6,N/A,,Overcast,10,2013-12-15 19:35:00
2:55 PM,14.0,10.4,86,29.45,0.8,North,21.9,28.8,N/A,,Overcast,10,2013-12-15 19:55:00
3:15 PM,14.0,10.4,86,29.45,1.2,North,16.1,25.3,N/A,,Overcast,10,2013-12-15 20:15:00
3:35 PM,14.0,10.4,86,29.46,1.8,North,16.1,-,N/A,,Overcast,10,2013-12-15 20:35:00
3:55 PM,15.8,10.4,79,29.47,4.0,North,16.1,-,N/A,,Mostly Cloudy,360,2013-12-15 20:55:00
4:15 PM,15.8,10.4,79,29.49,10.0,North,11.5,-,N/A,,Mostly Cloudy,360,2013-12-15 21:15:00
4:35 PM,15.8,10.4,79,29.49,10.0,North,13.8,-,N/A,,Overcast,360,2013-12-15 21:35:00
4:55 PM,15.8,10.4,79,29.49,10.0,North,11.5,-,N/A,,Overcast,360,2013-12-15 21:55:00
5:15 PM,15.8,10.4,79,29.50,10.0,North,8.1,-,N/A,,Overcast,360,2013-12-15 22:15:00
5:35 PM,17.6,10.4,73,29.51,10.0,NW,10.4,-,N/A,,Overcast,310,2013-12-15 22:35:00
5:55 PM,15.8,10.4,79,29.52,10.0,NNW,8.1,-,N/A,,Overcast,330,2013-12-15 22:55:00
6:15 PM,15.8,10.4,79,29.53,10.0,NNW,9.2,-,N/A,,Overcast,330,2013-12-15 23:15:00
6:35 PM,15.8,10.4,79,29.54,10.0,NNW,9.2,-,N/A,,Overcast,330,2013-12-15 23:35:00
6:55 PM,15.8,8.6,73,29.54,10.0,NNW,10.4,-,N/A,,Overcast,330,2013-12-15 23:55:00
7:15 PM,15.8,10.4,79,29.55,10.0,NNW,9.2,-,N/A,,Overcast,340,2013-12-16 00:15:00
7:35 PM,15.8,8.6,73,29.56,10.0,NNW,9.2,-,N/A,,Overcast,330,2013-12-16 00:35:00
7:55 PM,15.8,8.6,73,29.56,10.0,NNW,6.9,-,N/A,,Overcast,340,2013-12-16 00:55:00
8:15 PM,15.8,8.6,73,29.56,10.0,NNW,8.1,-,N/A,,Overcast,330,2013-12-16 01:15:00
8:35 PM,15.8,8.6,73,29.57,10.0,NW,4.6,-,N/A,,Overcast,320,2013-12-16 01:35:00
8:55 PM,15.8,8.6,73,29.58,10.0,NW,5.8,-,N/A,,Overcast,320,2013-12-16 01:55:00
9:15 PM,15.8,8.6,73,29.58,10.0,NNW,4.6,-,N/A,,Overcast,340,2013-12-16 02:15:00
9:35 PM,14.0,8.6,79,29.59,10.0,Calm,Calm,-,N/A,,Mostly Cloudy,0,2013-12-16 02:35:00
9:55 PM,12.2,8.6,85,29.59,10.0,Calm,Calm,-,N/A,,Mostly Cloudy,0,2013-12-16 02:55:00
10:15 PM,12.2,8.6,85,29.61,10.0,West,3.5,-,N/A,,Overcast,260,2013-12-16 03:15:00
10:35 PM,12.2,8.6,85,29.61,10.0,Calm,Calm,-,N/A,,Overcast,0,2013-12-16 03:35:00
10:55 PM,12.2,8.6,85,29.62,10.0,Calm,Calm,-,N/A,,Overcast,0,2013-12-16 03:55:00
11:15 PM,12.2,8.6,85,29.62,10.0,SW,3.5,-,N/A,,Scattered Clouds,230,2013-12-16 04:15:00
11:35 PM,12.2,8.6,85,29.62,10.0,West,4.6,-,N/A,,Partly Cloudy,270,2013-12-16 04:35:00
11:55 PM,8.6,3.2,79,29.61,10.0,Calm,Calm,-,N/A,,Clear,0,2013-12-16 04:55:00